2022-01-14 00:03:12 r, 16.68m,0000000018Hz,0000025713c,0000000.056s,-001.7C,00002191
2022-01-14 00:13:15 r, 16.87m,0000000015Hz,0000030648c,0000000.067s,-001.7C,00002191
2022-01-14 00:23:13 r, 16.90m,0000000015Hz,0000031566c,0000000.069s,-001.3C,00002191
2022-01-14 00:33:12 r, 16.95m,0000000014Hz,0000033061c,0000000.072s,-001.3C,00002191
2022-01-14 00:43:15 r, 16.96m,0000000013Hz,0000033313c,0000000.072s,-001.0C,00002191
2022-01-14 00:53:13 r, 17.06m,0000000013Hz,0000036704c,0000000.080s,-001.0C,00002191
2022-01-14 01:03:12 r, 17.18m,0000000011Hz,0000040753c,0000000.088s,-001.0C,00002191
2022-01-14 01:13:13 r, 17.26m,0000000010Hz,0000044176c,0000000.096s,-001.0C,00002191
2022-01-14 01:23:13 r, 17.36m,0000000010Hz,0000048202c,0000000.105s,-001.0C,00002191
2022-01-14 01:33:12 r, 17.32m,0000000010Hz,0000046399c,0000000.101s,-001.0C,00002191
2022-01-14 01:43:13 r, 17.63m,0000000008Hz,0000061491c,0000000.133s,-001.0C,00002191
2022-01-14 01:53:13 r, 17.55m,0000000008Hz,0000057103c,0000000.124s,-001.0C,00002191
2022-01-14 02:03:12 r, 17.24m,0000000010Hz,0000043445c,0000000.094s,-001.0C,00002191
2022-01-14 02:13:15 r, 17.23m,0000000011Hz,0000042762c,0000000.093s,-001.3C,00002191
2022-01-14 02:23:13 r, 17.31m,0000000010Hz,0000045977c,0000000.100s,-001.3C,00002191
2022-01-14 02:33:12 r, 17.22m,0000000011Hz,0000042656c,0000000.093s,-001.3C,00002191
2022-01-14 02:43:15 r, 17.33m,0000000010Hz,0000046862c,0000000.102s,-001.3C,00002191
2022-01-14 02:53:13 r, 17.41m,0000000009Hz,0000050438c,0000000.109s,-001.3C,00002191
2022-01-14 03:03:12 r, 17.54m,0000000008Hz,0000056700c,0000000.123s,-001.3C,00002191
2022-01-14 03:13:13 r, 17.53m,0000000009Hz,0000056329c,0000000.122s,-001.3C,00002191
2022-01-14 03:23:13 r, 17.56m,0000000008Hz,0000058258c,0000000.126s,-001.3C,00002191
2022-01-14 03:33:12 r, 17.84m,0000000006Hz,0000075579c,0000000.164s,-001.3C,00002191
2022-01-14 03:43:13 r, 17.76m,0000000007Hz,0000069773c,0000000.151s,-001.3C,00002191
2022-01-14 03:53:13 r, 17.81m,0000000007Hz,0000073349c,0000000.159s,-001.7C,00002191
2022-01-14 04:03:12 r, 17.78m,0000000007Hz,0000071288c,0000000.155s,-001.7C,00002191
2022-01-14 04:13:13 r, 17.91m,0000000006Hz,0000079887c,0000000.173s,-001.7C,00002191
2022-01-14 04:23:14 r, 17.82m,0000000006Hz,0000073998c,0000000.161s,-001.7C,00002191
2022-01-14 04:33:12 r, 17.63m,0000000007Hz,0000061473c,0000000.133s,-001.7C,00002191
2022-01-14 04:43:14 r, 17.59m,0000000008Hz,0000059341c,0000000.129s,-002.0C,00002191
2022-01-14 04:53:13 r, 17.61m,0000000007Hz,0000060738c,0000000.132s,-002.0C,00002191
2022-01-14 05:03:12 r, 17.72m,0000000007Hz,0000067467c,0000000.146s,-002.0C,00002191
2022-01-14 05:13:14 r, 17.74m,0000000007Hz,0000069080c,0000000.150s,-002.0C,00002191
2022-01-14 05:23:13 r, 17.91m,0000000006Hz,0000080626c,0000000.175s,-002.0C,00002191
2022-01-14 05:33:12 r, 17.83m,0000000006Hz,0000074565c,0000000.162s,-002.0C,00002191
2022-01-14 05:43:13 r, 17.64m,0000000007Hz,0000062071c,0000000.135s,-002.0C,00002191
2022-01-14 05:53:13 r, 17.53m,0000000009Hz,0000056392c,0000000.122s,-002.0C,00002191
2022-01-14 06:03:12 r, 17.40m,0000000009Hz,0000050058c,0000000.109s,-002.0C,00002191
2022-01-14 06:13:12 r, 17.39m,0000000010Hz,0000049612c,0000000.108s,-002.0C,00002191
2022-01-14 06:23:14 r, 17.49m,0000000009Hz,0000054648c,0000000.119s,-002.0C,00002191
2022-01-14 06:33:12 r, 17.68m,0000000007Hz,0000064563c,0000000.140s,-002.0C,00002191
2022-01-14 06:43:12 r, 17.88m,0000000006Hz,0000077980c,0000000.169s,-002.0C,00002191
2022-01-14 06:53:14 r, 18.24m,0000000005Hz,0000108305c,0000000.235s,-002.0C,00002191
2022-01-14 07:03:12 r, 18.17m,0000000004Hz,0000101533c,0000000.220s,-002.0C,00002191
2022-01-14 07:13:14 r, 17.89m,0000000006Hz,0000078504c,0000000.170s,-002.3C,00002191
2022-01-14 07:23:13 r, 16.98m,0000000013Hz,0000034169c,0000000.074s,-002.3C,00002191
2022-01-14 07:33:12 r, 15.35m,0000000060Hz,0000007584c,0000000.016s,-002.6C,00002191
2022-01-14 07:43:14 r, 13.61m,0000000305Hz,0000000000c,0000000.000s,-002.6C,00002191
2022-01-14 07:53:13 r, 11.75m,0000001690Hz,0000000000c,0000000.000s,-003.0C,00002191
2022-01-14 08:03:12 r, 09.95m,0000008859Hz,0000000000c,0000000.000s,-003.3C,00002191
2022-01-14 08:13:13 r, 08.56m,0000031840Hz,0000000000c,0000000.000s,-003.3C,00002191
2022-01-14 08:23:13 r, 07.63m,0000075701Hz,0000000000c,0000000.000s,-003.6C,00002191
2022-01-14 08:33:12 r, 06.93m,0000144136Hz,0000000000c,0000000.000s,-003.9C,00002191
2022-01-14 08:43:12 r, 06.31m,0000252563Hz,0000000000c,0000000.000s,-003.9C,00002191
2022-01-14 08:53:14 r, 05.99m,0000338183Hz,0000000000c,0000000.000s,-003.9C,00002191
2022-01-14 09:03:12 r, 05.83m,0000393213Hz,0000000000c,0000000.000s,-004.2C,00002191
2022-01-14 09:13:13 r, 00.00m,0000599467Hz,0000000000c,0000000.000s,-003.6C,00002191
2022-01-14 09:23:13 r, 00.00m,0000599273Hz,0000000000c,0000000.000s,-002.6C,00002191
2022-01-14 09:33:12 r, 00.00m,0000599283Hz,0000000000c,0000000.000s,-001.7C,00002191
2022-01-14 09:43:14 r, 00.00m,0000599256Hz,0000000000c,0000000.000s,-000.7C,00002191
2022-01-14 09:53:13 r, 00.00m,0000599158Hz,0000000000c,0000000.000s,-000.7C,00002191
2022-01-14 10:03:12 r, 00.00m,0000599048Hz,0000000000c,0000000.000s,-000.4C,00002191
2022-01-14 10:13:13 r, 00.00m,0000599048Hz,0000000000c,0000000.000s,-000.4C,00002191
2022-01-14 10:23:13 r, 00.00m,0000599017Hz,0000000000c,0000000.000s, 000.3C,00002191
2022-01-14 10:33:12 r, 00.00m,0000599023Hz,0000000000c,0000000.000s, 000.9C,00002191
2022-01-14 10:43:12 r, 00.00m,0000598914Hz,0000000000c,0000000.000s, 001.6C,00002191
2022-01-14 10:53:14 r, 00.00m,0000599015Hz,0000000000c,0000000.000s, 001.2C,00002191
2022-01-14 11:03:12 r, 00.00m,0000598847Hz,0000000000c,0000000.000s, 001.9C,00002191
2022-01-14 11:13:12 r, 00.00m,0000598866Hz,0000000000c,0000000.000s, 002.5C,00002191
2022-01-14 11:23:14 r, 00.00m,0000598936Hz,0000000000c,0000000.000s, 002.5C,00002191
2022-01-14 11:33:12 r, 00.00m,0000598823Hz,0000000000c,0000000.000s, 002.5C,00002191
2022-01-14 11:43:14 r, 00.00m,0000598819Hz,0000000000c,0000000.000s, 002.9C,00002191
2022-01-14 11:53:13 r, 00.00m,0000598807Hz,0000000000c,0000000.000s, 002.9C,00002191
2022-01-14 12:03:12 r, 00.00m,0000598724Hz,0000000000c,0000000.000s, 003.2C,00002191
2022-01-14 12:13:14 r, 00.00m,0000598750Hz,0000000000c,0000000.000s, 003.2C,00002191
2022-01-14 12:23:13 r, 00.00m,0000598692Hz,0000000000c,0000000.000s, 003.5C,00002191
2022-01-14 12:33:12 r, 00.00m,0000598742Hz,0000000000c,0000000.000s, 003.8C,00002191
2022-01-14 12:43:13 r, 00.00m,0000598711Hz,0000000000c,0000000.000s, 003.8C,00002191
2022-01-14 12:53:13 r, 00.00m,0000598717Hz,0000000000c,0000000.000s, 004.1C,00002191
2022-01-14 13:03:12 r, 00.00m,0000598705Hz,0000000000c,0000000.000s, 004.1C,00002191
2022-01-14 13:13:12 r, 00.00m,0000598810Hz,0000000000c,0000000.000s, 003.8C,00002191
2022-01-14 13:23:14 r, 00.00m,0000598934Hz,0000000000c,0000000.000s, 003.8C,00002191
2022-01-14 13:33:12 r, 00.00m,0000598737Hz,0000000000c,0000000.000s, 003.8C,00002191
2022-01-14 13:43:12 r, 00.00m,0000598856Hz,0000000000c,0000000.000s, 003.5C,00002191
2022-01-14 13:53:14 r, 00.00m,0000598838Hz,0000000000c,0000000.000s, 003.5C,00002191
2022-01-14 14:03:12 r, 00.00m,0000598669Hz,0000000000c,0000000.000s, 003.8C,00002191
2022-01-14 14:13:12 r, 00.00m,0000598707Hz,0000000000c,0000000.000s, 004.1C,00002191
2022-01-14 14:23:13 r, 00.00m,0000598708Hz,0000000000c,0000000.000s, 004.1C,00002191
2022-01-14 14:33:12 r, 00.00m,0000598802Hz,0000000000c,0000000.000s, 003.5C,00002191
2022-01-14 14:43:12 r, 00.00m,0000598883Hz,0000000000c,0000000.000s, 002.9C,00002191
2022-01-14 14:53:13 r, 00.00m,0000599025Hz,0000000000c,0000000.000s, 002.2C,00002191
2022-01-14 15:03:14 r, 00.00m,0000599003Hz,0000000000c,0000000.000s, 001.9C,00002191
2022-01-14 15:13:12 r, 00.00m,0000599038Hz,0000000000c,0000000.000s, 001.6C,00002191
2022-01-14 15:23:13 r, 00.00m,0000599031Hz,0000000000c,0000000.000s, 000.9C,00002191
2022-01-14 15:33:12 r, 00.00m,0000590870Hz,0000000000c,0000000.000s, 000.1C,00002191
2022-01-14 15:43:12 r, 00.00m,0000599417Hz,0000000000c,0000000.000s,-000.7C,00002191
2022-01-14 15:53:14 r, 00.00m,0000532144Hz,0000000000c,0000000.000s,-000.4C,00002191
2022-01-14 16:03:12 r, 00.00m,0000459644Hz,0000000000c,0000000.000s, 000.6C,00002191
2022-01-14 16:13:12 r, 05.86m,0000384051Hz,0000000000c,0000000.000s, 000.6C,00002191
2022-01-14 16:23:14 r, 06.11m,0000304153Hz,0000000000c,0000000.000s, 000.3C,00002191
2022-01-14 16:33:13 r, 06.45m,0000221923Hz,0000000000c,0000000.000s, 000.3C,00002191
2022-01-14 16:43:12 r, 06.94m,0000141651Hz,0000000000c,0000000.000s,-000.4C,00002191
2022-01-14 16:53:12 r, 07.63m,0000074824Hz,0000000000c,0000000.000s,-001.3C,00002191
2022-01-14 17:03:13 r, 08.61m,0000030333Hz,0000000000c,0000000.000s,-002.6C,00002191
2022-01-14 17:13:12 r, 09.98m,0000008580Hz,0000000000c,0000000.000s,-003.6C,00002191
2022-01-14 17:23:13 r, 11.75m,0000001685Hz,0000000000c,0000000.000s,-004.2C,00002191
2022-01-14 17:33:13 r, 13.75m,0000000269Hz,0000000000c,0000000.000s,-004.6C,00002191
2022-01-14 17:43:12 r, 15.62m,0000000048Hz,0000009776c,0000000.021s,-004.9C,00002191
2022-01-14 17:53:12 r, 17.05m,0000000013Hz,0000036301c,0000000.079s,-005.2C,00002191
2022-01-14 18:03:14 r, 17.86m,0000000006Hz,0000075848c,0000000.165s,-005.5C,00002191
2022-01-14 18:13:12 r, 18.18m,0000000005Hz,0000101713c,0000000.221s,-005.9C,00002191
2022-01-14 18:23:14 r, 18.25m,0000000004Hz,0000108233c,0000000.235s,-006.2C,00002191
2022-01-14 18:33:12 r, 18.20m,0000000004Hz,0000103881c,0000000.225s,-006.5C,00002191
2022-01-14 18:43:12 r, 18.15m,0000000005Hz,0000098501c,0000000.214s,-006.5C,00002191
2022-01-14 18:53:12 r, 18.08m,0000000005Hz,0000092610c,0000000.201s,-006.8C,00002191
2022-01-14 19:03:13 r, 17.99m,0000000005Hz,0000085369c,0000000.185s,-006.8C,00002191
2022-01-14 19:13:12 r, 17.90m,0000000006Hz,0000079165c,0000000.172s,-006.8C,00002191
2022-01-14 19:23:13 r, 17.79m,0000000007Hz,0000071609c,0000000.155s,-007.1C,00002191
2022-01-14 19:33:13 r, 17.68m,0000000007Hz,0000064281c,0000000.139s,-007.5C,00002191
2022-01-14 19:43:12 r, 17.54m,0000000008Hz,0000056268c,0000000.122s,-007.5C,00002191
2022-01-14 19:53:13 r, 17.34m,0000000009Hz,0000046992c,0000000.102s,-007.8C,00002191
2022-01-14 20:03:14 r, 17.09m,0000000012Hz,0000037324c,0000000.081s,-007.8C,00002191
2022-01-14 20:13:12 r, 16.95m,0000000014Hz,0000032680c,0000000.071s,-007.8C,00002191
2022-01-14 20:23:14 r, 16.66m,0000000018Hz,0000025045c,0000000.054s,-007.8C,00002191
2022-01-14 20:33:12 r, 16.31m,0000000025Hz,0000018180c,0000000.039s,-008.1C,00002191
2022-01-14 20:43:12 r, 16.11m,0000000030Hz,0000015131c,0000000.033s,-008.1C,00002191
2022-01-14 20:53:14 r, 15.99m,0000000034Hz,0000013652c,0000000.030s,-008.4C,00002191
2022-01-14 21:03:12 r, 15.92m,0000000037Hz,0000012748c,0000000.028s,-008.4C,00002191
2022-01-14 21:13:12 r, 15.81m,0000000040Hz,0000011479c,0000000.025s,-008.1C,00002191
2022-01-14 21:23:12 r, 15.75m,0000000042Hz,0000010834c,0000000.024s,-008.1C,00002191
2022-01-14 21:33:13 r, 15.67m,0000000045Hz,0000010168c,0000000.022s,-007.8C,00002191
2022-01-14 21:43:12 r, 15.57m,0000000050Hz,0000009187c,0000000.020s,-008.1C,00002191
2022-01-14 21:53:12 r, 15.45m,0000000055Hz,0000008353c,0000000.018s,-007.8C,00002191
2022-01-14 22:03:14 r, 15.39m,0000000059Hz,0000007830c,0000000.017s,-007.8C,00002191
2022-01-14 22:13:12 r, 15.34m,0000000062Hz,0000007475c,0000000.016s,-007.8C,00002191
2022-01-14 22:23:12 r, 15.36m,0000000061Hz,0000007559c,0000000.016s,-008.1C,00002191
2022-01-14 22:33:14 r, 15.38m,0000000059Hz,0000007775c,0000000.017s,-008.4C,00002191
2022-01-14 22:43:12 r, 15.42m,0000000056Hz,0000008104c,0000000.018s,-008.8C,00002191
2022-01-14 22:53:14 r, 15.50m,0000000053Hz,0000008688c,0000000.019s,-008.8C,00002191
2022-01-14 23:03:12 r, 15.60m,0000000048Hz,0000009588c,0000000.021s,-008.8C,00002191
2022-01-14 23:13:12 r, 15.76m,0000000042Hz,0000011041c,0000000.024s,-008.8C,00002191
2022-01-14 23:23:14 r, 15.87m,0000000037Hz,0000012262c,0000000.027s,-008.8C,00002191
2022-01-14 23:33:12 r, 16.05m,0000000032Hz,0000014394c,0000000.031s,-008.4C,00002191
2022-01-14 23:43:12 r, 16.37m,0000000024Hz,0000019214c,0000000.042s,-008.1C,00002191
2022-01-14 23:53:12 r, 16.67m,0000000018Hz,0000025336c,0000000.055s,-007.8C,00002191
